Погода в Заполярном

Россия / Мурманская область     69°25′34″N   30°49′13″E
темп.,
°C
ветер,
м/с
пор.,
м/с
влажн.,
%
обл.,
%
осадки,
мм/ч
давл.,
гПа
погр.,
м
17 сентября, пт
пт1700:00+4ююв117482 0.0 102713
03:00+4ю227199 0.0 102715
06:00+4ю227199 0.0 102818
09:00+4ю2473100 0.0 1028190
12:00+6ю357369 0.0 1028441
15:00+7ююз466473 0.0 1028934
18:00+6ююз346884 0.0 102872
21:00+3ю4477100 0.0 102829
18 сентября, сб
сб1800:00+3ююз3378100 0.0 102935
03:00+2ююз448195 0.0 102947
06:00+2ююз448582 0.0 102940
09:00+4ююз48775 0.0 1029329
12:00+7юз78645 0.0 1029814
15:00+8юз78577 0.0 10291085
18:00+7ююз59655 0.0 1029223
21:00+3ююз48785 0.0 1030108
19 сентября, вс
вс1900:00+2ююз45805 0.0 103050
03:00+2ююз46825 0.0 103175
06:00+2ююз59785 0.0 1031116
09:00+5юз61266100 0.0 1031463
12:00+7юз9115996 0.0 1031894
15:00+9юз8105616 0.0 1031980
18:00+7юз6106638 0.0 1031214
21:00+4юз41079100 0.0 1032157
20 сентября, пн
пн2000:00+3юз5118473 0.0 1032168
03:00+2ююз51186100 0.0 1032208
06:00+3юз61384100 0.0 1031299
09:00+4юз81477100 0.0 1031434
12:00+6зюз101466100 0.0 1031563
15:00+7юз91362100 0.0 1030659
18:00+6юз81366100 0.0 1029406
21:00+3юз51280100 0.0 1030215
21 сентября, вт
вт2100:00+2юз51285100 0.0 1029204
03:00+1юз5118996 0.0 1029197
06:000ююз4108928 0.0 1028191
09:00+3юз613751 0.0 1028425
12:00+6юз811634 0.0 1027613
15:00+7юз810585 0.0 1026833
18:00+6ююз59673 0.0 1025185
21:00+3ююз45810 0.0 102556